TimeEST,TemperatureF,Dew PointF,Humidity,Sea Level PressureIn,VisibilityMPH,Wind Direction,Wind SpeedMPH,Gust SpeedMPH,PrecipitationIn,Events,Conditions,WindDirDegrees,DateUTC
12:53 AM,32.0,25.0,75,30.40,10.0,SW,5.8,-,N/A,,Overcast,230,2013-01-04 05:53:00
1:53 AM,32.0,25.0,75,30.39,10.0,West,5.8,-,N/A,,Overcast,260,2013-01-04 06:53:00
2:53 AM,32.0,24.1,73,30.38,10.0,WNW,3.5,-,N/A,,Overcast,290,2013-01-04 07:53:00
3:53 AM,32.0,25.0,75,30.39,10.0,SW,3.5,-,N/A,,Overcast,220,2013-01-04 08:53:00
4:53 AM,30.9,24.1,76,30.38,10.0,SW,4.6,-,N/A,,Overcast,230,2013-01-04 09:53:00
5:53 AM,30.2,23.0,75,30.37,10.0,Calm,Calm,-,N/A,,Mostly Cloudy,0,2013-01-04 10:53:00
6:53 AM,28.4,23.0,80,30.38,10.0,SW,3.5,-,N/A,,Clear,220,2013-01-04 11:53:00
7:53 AM,28.4,23.0,80,30.39,9.0,SSW,3.5,-,N/A,,Clear,200,2013-01-04 12:53:00
8:53 AM,28.9,24.1,82,30.42,7.0,South,4.6,-,N/A,,Clear,180,2013-01-04 13:53:00
9:53 AM,32.0,25.0,75,30.43,7.0,SW,4.6,-,N/A,,Clear,230,2013-01-04 14:53:00
10:53 AM,35.1,25.0,67,30.44,10.0,WSW,10.4,-,N/A,,Clear,250,2013-01-04 15:53:00
11:53 AM,37.0,25.0,62,30.44,10.0,WSW,9.2,-,N/A,,Partly Cloudy,250,2013-01-04 16:53:00
12:53 PM,39.0,25.0,57,30.41,10.0,West,12.7,19.6,N/A,,Mostly Cloudy,280,2013-01-04 17:53:00
1:53 PM,37.9,24.1,57,30.39,10.0,WNW,13.8,-,N/A,,Overcast,300,2013-01-04 18:53:00
2:53 PM,37.9,24.1,57,30.40,10.0,West,11.5,-,N/A,,Mostly Cloudy,280,2013-01-04 19:53:00
3:53 PM,37.9,23.0,55,30.40,10.0,WSW,11.5,20.7,N/A,,Partly Cloudy,250,2013-01-04 20:53:00
4:53 PM,37.0,23.0,57,30.40,10.0,WSW,11.5,-,N/A,,Clear,240,2013-01-04 21:53:00
5:53 PM,35.1,23.0,61,30.40,10.0,West,4.6,-,N/A,,Clear,260,2013-01-04 22:53:00
6:53 PM,34.0,23.0,64,30.40,10.0,SW,3.5,-,N/A,,Clear,230,2013-01-04 23:53:00
7:53 PM,33.1,23.0,66,30.41,10.0,Calm,Calm,-,N/A,,Clear,0,2013-01-05 00:53:00
8:53 PM,30.9,23.0,72,30.41,10.0,Calm,Calm,-,N/A,,Clear,0,2013-01-05 01:53:00
9:53 PM,28.9,23.0,78,30.41,10.0,Calm,Calm,-,N/A,,Clear,0,2013-01-05 02:53:00
10:53 PM,28.0,21.9,78,30.41,10.0,Calm,Calm,-,N/A,,Clear,0,2013-01-05 03:53:00
11:53 PM,26.1,23.0,88,30.40,9.0,Calm,Calm,-,N/A,,Clear,0,2013-01-05 04:53:00